Weather History for KCAK - December, 2011

Change the Weather History Date:

Monday, December 26, 2011

  Actual Average Record
Temperature  
Mean Temperature 38 °F 28 °F  
Max Temperature 43 °F 34 °F 63 °F (1982)
Min Temperature 32 °F 21 °F -10 °F (1983)
Degree Days  
Heating Degree Days 27 37  
Month to date heating degree days 738 883  
Since 1 July heating degree days 1766 2142  
Cooling Degree Days 0 0  
Month to date cooling degree days 0 0  
Year to date cooling degree days 911 652  
Moisture  
Dew Point 26 °F    
Average Humidity 64    
Maximum Humidity 75    
Minimum Humidity 53    
Precipitation  
Precipitation 0.00 in 0.09 in 0.58 in (2012)
Month to date precipitation 4.10 2.41  
Year to date precipitation 57.73 39.19  
Snow  
Snow 0.00 in 0.30 in - ()
Month to date snowfall 1.9 8.3  
Since 1 July snowfall 2.0 11.7  
Snow Depth 0.00 in    
Sea Level Pressure  
Sea Level Pressure 30.24 in    
Wind  
Wind Speed 9 mph (SW)    
Max Wind Speed 16 mph    
Max Gust Speed 22 mph    
Visibility 10 miles    
Events      
T = Trace of Precipitation, MM = Missing Value Source: NWS Daily Summary

Daily Weather History Graph

Daily Weather History Graph

Search for Another Location

Airport or City:

Trip Planner

Search our weather history database for the weather conditions in past years. The results will help you decide how hot, cold, wet, or windy it might be!

Date:

Astronomy

Dec. 26, 2011 Rise Set
Actual Time 7:48 AM EST 5:03 PM EST
Civil Twilight 7:17 AM EST 5:34 PM EST
Nautical Twilight 6:43 AM EST 6:09 PM EST
Astronomical Twilight 6:09 AM EST 6:42 PM EST
Moon 9:07 AM EST (12/26) 7:31 PM EST (12/26)
Length of Visible Light 10h 16m
Length of Day
9h 14m
Waxing Crescent, 5% of the Moon is Illuminated
Dec 26
Waxing Crescent
Jan 1
First Quarter
Jan 9
Full
Jan 16
Last Quarter
Jan 23
New

Hourly Weather History & Observations

Time (EST) Temp. Windchill Dew Point Humidity Pressure Visibility Wind Dir Wind Speed Gust Speed Precip Events Conditions
12:51 AM 35.6 °F 26.6 °F 26.6 °F 70% 30.19 in 10.0 mi WNW 13.8 mph - N/A   Overcast
1:51 AM 35.1 °F 27.4 °F 27.0 °F 72% 30.25 in 10.0 mi West 10.4 mph - N/A   Overcast
1:58 AM 35.6 °F 27.5 °F 26.6 °F 70% 30.22 in 10.0 mi WNW 11.5 mph 18.4 mph N/A   Overcast
2:51 AM 33.1 °F 26.9 °F 26.1 °F 75% 30.27 in 10.0 mi WNW 6.9 mph - N/A   Mostly Cloudy
3:51 AM 33.1 °F 30.0 °F 27.0 °F 78% 30.27 in 10.0 mi West 3.5 mph - N/A   Overcast
4:51 AM 33.1 °F 28.7 °F 27.0 °F 78% 30.29 in 10.0 mi WSW 4.6 mph - N/A   Overcast
5:51 AM 34.0 °F 28.8 °F 27.0 °F 75% 30.30 in 10.0 mi West 5.8 mph - N/A   Overcast
6:51 AM 34.0 °F 28.0 °F 27.0 °F 75% 30.35 in 10.0 mi West 6.9 mph - N/A   Overcast
7:51 AM 34.0 °F 29.8 °F 26.1 °F 73% 30.35 in 10.0 mi West 4.6 mph - N/A   Overcast
8:51 AM 35.1 °F 30.1 °F 25.0 °F 67% 30.37 in 10.0 mi West 5.8 mph - N/A   Overcast
9:51 AM 36.0 °F 33.3 °F 25.0 °F 64% 30.37 in 10.0 mi WSW 3.5 mph - N/A   Overcast
10:51 AM 37.9 °F 32.1 °F 24.1 °F 57% 30.36 in 10.0 mi West 8.1 mph - N/A   Overcast
11:51 AM 39.0 °F 34.0 °F 25.0 °F 57% 30.32 in 10.0 mi WSW 6.9 mph - N/A   Scattered Clouds
12:51 PM 41.0 °F 34.3 °F 26.1 °F 55% 30.29 in 10.0 mi SW 11.5 mph - N/A   Scattered Clouds
1:51 PM 42.1 °F 36.6 °F 26.1 °F 53% 30.26 in 10.0 mi SW 9.2 mph - N/A   Scattered Clouds
2:51 PM 42.1 °F 34.9 °F 26.1 °F 53% 30.24 in 10.0 mi SSW 13.8 mph 20.7 mph N/A   Scattered Clouds
3:51 PM 42.1 °F 34.2 °F 26.1 °F 53% 30.25 in 10.0 mi SSW 16.1 mph 21.9 mph N/A   Scattered Clouds
4:51 PM 37.9 °F 31.5 °F 25.0 °F 60% 30.21 in 10.0 mi South 9.2 mph - N/A   Scattered Clouds
5:51 PM 37.0 °F 29.8 °F 26.1 °F 65% 30.18 in 10.0 mi South 10.4 mph - N/A   Scattered Clouds
6:51 PM 37.0 °F 29.8 °F 25.0 °F 62% 30.18 in 10.0 mi South 10.4 mph - N/A   Partly Cloudy
7:51 PM 36.0 °F 29.0 °F 25.0 °F 64% 30.16 in 10.0 mi South 9.2 mph - N/A   Partly Cloudy
8:51 PM 37.0 °F 28.9 °F 25.0 °F 62% 30.12 in 10.0 mi South 12.7 mph - N/A   Mostly Cloudy
9:51 PM 36.0 °F 29.6 °F 25.0 °F 64% 30.10 in 10.0 mi South 8.1 mph - N/A   Overcast
10:51 PM 36.0 °F 29.6 °F 25.0 °F 64% 30.04 in 10.0 mi SSE 8.1 mph - N/A   Overcast
11:51 PM 36.0 °F 29.6 °F 25.0 °F 64% 30.01 in 10.0 mi South 8.1 mph - N/A   Overcast